Regional Weather Roundup
Issued by NWS

Home | Current Version | Previous Version | Text Only | Print | Product List | Glossary On
Versions: 1 2 3 4 5 6 7 8 9 10 11 12 13 14 15 16 17 18 19 20 21 22 23 24 25 26 27 28 29 30 31 32 33 34 35 36 37 38 39 40 41 42 43 44 45 46 47 48 49 50
000
ASUS44 KLUB 272310
RWRTX
WEST TEXAS WEATHER ROUNDUP
NATIONAL WEATHER SERVICE LUBBOCK TX
600 PM CDT FRI MAY 27 2016

NOTE: "FAIR" INDICATES FEW OR NO CLOUDS BELOW 12,000 FEET WITH NO
SIGNIFICANT WEATHER AND/OR OBSTRUCTIONS TO VISIBILITY.

TXZ004-006>008-010-012-014-016-OKZ002-280000-
TEXAS PANHANDLE/OKLAHOMA PANHANDLE

CITY           SKY/WX    TMP DP  RH WIND       PRES   REMARKS
AMARILLO       SUNNY     76  38  25 W12G20    29.77S
BORGER         SUNNY     77  37  23 W16G23    29.75S
CANADIAN       SUNNY     78  44  30 NW15G21   29.70S
DALHART        SUNNY     74  38  27 W10       29.78F
DUMAS          SUNNY     74  38  26 W14       29.77F
GUYMON         PTSUNNY   73  42  32 NW23G38   29.69S
HEREFORD       SUNNY     80  34  18 N8        29.78F
PAMPA          SUNNY     76  39  26 W18G26    29.76S
PERRYTON       MOSUNNY   76  41  28 W24G37    29.71R
$$

TXZ026-029-035-045-048-280000-
SOUTHERN PANHANDLE/SOUTH PLAINS/ROLLING PLAINS

CITY           SKY/WX    TMP DP  RH WIND       PRES   REMARKS
CHILDRESS      SUNNY     86  42  21 VRB6      29.67S
SEMINOLE       SUNNY     86  24  10 W15       29.78S
LUBBOCK        MOSUNNY   84  31  14 W18G28    29.73F
PLAINVIEW      SUNNY     82  32  16 W14G22    29.74S
SNYDER           N/A     86  32  14 W15       29.74S
$$

TXZ052-054-060>062-072-078-127-140-154-169-280000-
PERMIAN BASIN/CONCHO VALLEY/BIG COUNTRY/EDWARDS PLATEAU

CITY           SKY/WX    TMP DP  RH WIND       PRES   REMARKS
ABILENE        SUNNY     86  43  22 W8        29.71S
BIG SPRING     SUNNY     85  29  13 W13       29.76S
BROWNWOOD      SUNNY     81  66  61 SE10      29.73S
JUNCTION       SUNNY     92  35  13 W12       29.71F
MIDLAND        SUNNY     89  18   7 SW17G26   29.75S
ODESSA         SUNNY     90  14   6 W18G24    29.77S
SAN ANGELO     SUNNY     88  41  19 SW8       29.71F
SONORA         SUNNY     90  28  11 W9        29.78F
SWEETWATER     SUNNY     88  25  10 SW15G21   29.75S
WINK           SUNNY     90  19   7 W21       29.74F
$$

TXZ055-058-074-075-080-082-280000-
FAR WEST/SOUTHWEST MOUNTAINS/TRANS PECOS

CITY           SKY/WX    TMP DP  RH WIND       PRES   REMARKS
ALPINE         SUNNY     83  11   7 SW16G22   29.95S
DRYDEN           N/A     95  17   6 SW15      29.71F
EL PASO        SUNNY     84  18   8 SW13G25   29.85S
FORT STOCKTON  SUNNY     89  16   7 W17       29.77F
MARFA          SUNNY     80  15   8 SW14      29.93S
PECOS          SUNNY     89  16   7 W16G23    29.76S
PRESIDIO       FAIR      91   8   4 W15       29.78F
$$

TXZ014-016-019-021>030-083-280000
TEXAS TECH WEST TEXAS MESONET/TEXAS PANHANDLE/NORTHERN SOUTH PLAINS

CITY           SKY/WX    TMP DP  RH WIND       PRES   REMARKS
ABERNATHY 5ENE   N/A     83  31  15 W18G24    29.76R
AMARILLO 9NNE    N/A     77  37  23 NW10      29.77S
AMARILLO 7SSE    N/A     77  37  23 N12       29.79S
AMHERST 1NE      N/A     82  28  14 W20       29.77R
BOOTLEG 11WNW    N/A     75  34  22 W9        29.84S
CANADIAN 6E      N/A     77  44  31 W15       29.69S
CAPROCK CYN SP   N/A     82  37  19 W14       29.72S
CHILDRESS 2NNE   N/A     84  47  26 NE3       29.68S
CLARENDON 2WSW   N/A     80  39  23 NW14      29.74S
CLAUDE 12SW      N/A     79  35  20 W12       29.77S
DIMMITT 2NE      N/A     78  34  20 NW14      29.79S
FLOYDADA 2NNE    N/A     82  29  14 W16G22    29.73F
FRIONA 2NE       N/A     77  33  20 NW10      29.81S
GOODLETT 3W      N/A     87  45  23 NW3       29.66S
HART 3N          N/A     80  31  17 NW8       29.78S
HEREFORD 2NW     N/A     77  31  18 N8        29.82R
MCLEAN 1E        N/A     78  40  24 W16       29.73S
MEMPHIS 1NE      N/A     84  39  20 W10       29.69S
MULESHOE 2SSW    N/A     81  27  13 NW14      29.79R
OLTON 6S         N/A     80  33  17 W14       29.77R
PALO DURO SP     N/A     79  35  20 NW5       29.79R
PAMPA 2E         N/A     75  39  27 W16G22    29.77S
PLAINVIEW 1S     N/A     82  33  16 W12G21    29.75S
SILVERTON 7ESE   N/A     80  38  22 NW9       29.73S
TULIA 2ENE       N/A     79  37  22 NW13      29.78R
TURKEY 2WSW      N/A     85  33  15 W9        29.71R
UMBARGER 3NNE    N/A     78  33  19 N14       29.80S
$$

TXZ033>036-039>041-045>048-280000
TEXAS TECH WEST TEXAS MESONET/SOUTH PLAINS

CITY           SKY/WX    TMP DP  RH WIND       PRES   REMARKS
AIKEN 3WSW       N/A     82  35  18 W14       29.76S
ANDREWS 2NE      N/A     87  18   7 W7        29.79S
ANTON 6SSW       N/A     84  30  13 W18G25    29.75F
BROWNFIELD 2S    N/A     84  23  10 W20G29    29.77S
DENVR CTY 7WNW   N/A     83  20   9 W12G20    29.79S
GAIL 2ESE        N/A     87  28  11 SW14G22   29.73S
LAMESA 2SE       N/A     86  21   9 W13G21    29.76S
LEVELLAND 4S     N/A     83  26  12 W15G24    29.77F
LUBBOCK 3WNW     N/A     83  30  14 W14G22    29.76S
MORTON 1ENE      N/A     83  26  12 W21G26    29.78R
ODONNELL 1N      N/A     85  26  11 W13       29.76S
PLAINS 3N        N/A     83  24  11 W12       29.79S
RALLS 1SE        N/A     84  28  13 W18G28    29.75S
REESE CENTER     N/A     82  26  13 W20G26    29.76S
SEAGRAVES 1SW    N/A     85  24  10 SW12G20   29.78S
SEMINOLE 2NNE    N/A     85  20   9 SW10      29.78S
SLATON 2NE       N/A     85  23  10 W14G21    29.75S
SNYDER 3E        N/A     87  27  11 W10       29.73S
SUNDOWN 8SW      N/A     83  25  12 SW18G25   29.78S
TAHOKA 3NNE      N/A     84  25  11 W13       29.76S
WOLFFORTH 6SSW   N/A     85  21   9 W18G25    29.77S
$$

TXZ031-032-036>038-042>044-280000-
TEXAS TECH WEST TEXAS MESONET/ROLLING PLAINS

CITY           SKY/WX    TMP DP  RH WIND       PRES   REMARKS
ASPERMONT 3NE    N/A     90  31  12 SW13G20   29.68F
FLUVANNA 3WNW    N/A     87  24  10 SW18G25   29.74S
GRAHAM 5SSW      N/A     84  28  12 W15G23    29.75S
GUTHRIE 10WSW    N/A     88  33  14 W15G24    29.68S
HASKELL 1NW      N/A     91  27  10 W14       29.68F
JAYTON 1SSE      N/A     88  31  12 SW14G20   29.68F
KNOX CITY 3NW    N/A     91  30  11 W12G20    29.67S
LK A HENRY 1NW   N/A     88  27  11 W14       29.71S
NORTHFIELD 1S    N/A     87  35  15 W13       29.68S
ODELL 4ENE       N/A     87  46  24 W7        29.67S
PADUCAH 10SW     N/A     87  36  16 W12G17    29.68S
POST 1NE         N/A     87  26  11 SW15G21   29.72F
RRING SPRGS 3N   N/A     84  36  17 SW13G20   29.72S
SEYMOUR 3NW      N/A     89  35  14 SW14G22   29.66S
SPUR 1W          N/A     86  29  12 W13G20    29.71S
WEINERT 2NNE     N/A     91  35  14 SW14      29.67F
WHITE RVR 6NE    N/A     85  30  13 SW9       29.73S
$$

TXZ052-054-060>062-072-078-127-140-154-169-280000-
TEXAS TECH WEST TEXAS MESONET/PERMIAN BASIN/
CONCHO VALLEY/BIG COUNTRY/EDWARDS PLATEAU

CITY           SKY/WX    TMP DP  RH WIND       PRES   REMARKS
COYANOSA 2N      N/A     90  15   6 W16       29.76S
MERTZON 3NNE     N/A     89  36  15 W10       29.75F
SAN ANGELO 7NW   N/A     89  27  10 SW9       29.72F
STRLNG CT 4WSW   N/A     88  29  11 SW12G18   29.74F
ST LAWRNCE 5SW   N/A     88  18   7 W20G31    29.76S
SWEETWATR 11SW   N/A     86  37  17 SW12      29.76S
WALL 1E          N/A     88  36  16 SW9       29.74F
$$

TXZ055-058-074-075-080-082-280000-
TEXAS TECH WEST TEXAS MESONET/FAR WEST/SOUTHWEST MOUNTAINS/TRANS PECOS

CITY           SKY/WX    TMP DP  RH WIND       PRES   REMARKS
PRSMN GAP BBNP   N/A     93   7   4 S16       29.78F
GUADLPE MTN NP   N/A     74  14  10 W15       29.95S
$$



USA.gov is the U.S. government's official web portal to all federal, state and local government web resources and services.